Location: Malvern Link
(52.1333°N, 2.3000°W)
Time: 01:39:33
(UTC+00:00)

COSMOS 2406 - Pass Details

Date: 18 September 2020
Orbit: 844 x 863 km, 71.0° (Epoch: 23 October)

Event Time Altitude Azimuth Distance (km) Brightness Sun altitude
Rises 20:45:07 0° 329° (NNW) 3,416 7.5 -22.3°
Reaches altitude 10° 20:47:36 10° 332° (NNW) 2,477 6.5 -22.6°
Maximum altitude 20:53:16 69° 56° (NE) 907 3.2 -23.3°
Enters shadow 20:54:22 55° 112° (ESE) 1,009 3.2 -23.4°
